Location: Baix
(44.7118°N, 4.7648°E)
Time: 03:55:24
(UTC+00:00)

A-11 Canister half - Visible Passes

Search period start: 19 May 2021 00:00
Search period end: 29 May 2021 00:00
Orbit: 1514 x 1686 km, 47.2° (Epoch: 18 May)

Date Brightness Start Highest point End Pass type
(mag) Time Alt. Az. Time Alt. Az. Time Alt. Az.
19 May 9.9 19:27:02 10° WNW 19:35:23 39° SW 19:43:55 10° SSE visible
21 May 11.0 20:50:25 10° WSW 20:52:41 11° WSW 20:54:56 10° SW visible
22 May 10.9 20:26:35 10° WSW 20:29:54 12° WSW 20:33:14 10° SW visible
23 May 10.9 20:03:03 10° W 20:07:06 14° SW 20:11:13 10° SSW visible
24 May 10.9 19:39:39 10° W 19:44:19 15° SW 19:49:02 10° SSW visible
